Location: Newark
(47.4333°N, 19.2500°E)
Time: 03:08:23
(UTC+00:00)

X-37B - Pass Details

Date: 14 March 2021
Orbit: 380 x 394 km, 45.0° (Epoch: 07 April)

Event Time Altitude Azimuth Distance (km) Brightness Sun altitude
Rises 19:34:38 0° 264° (W) 2,272 5.2 -27.9°
Reaches altitude 10° 19:36:43 10° 259° (W) 1,419 4.0 -28.2°
Enters shadow 19:36:47 10° 259° (W) 1,395 3.9 -28.3°
